Regional Weather Roundup
Issued by NWS Newport/Morehead, NC

Current Version | Previous Version | Text Only | Print | Product List | Glossary Off
Versions: 1 2 3 4 5 6 7 8 9 10 11 12 13 14 15 16 17 18 19 20 21 22 23 24 25 26 27 28 29 30 31 32 33 34 35 36 37 38 39 40 41 42 43 44 45 46 47 48 49 50
000 ASUS42 KMHX 280925 RWRMHX WEATHER ROUNDUP FOR EASTERN NORTH CAROLINA NATIONAL WEATHER SERVICE NEWPORT/MOREHEAD CITY NC 500 AM EDT FRI APR 28 2017 NOTE: "FAIR" INDICATES FEW OR NO CLOUDS BELOW 12,000 FEET WITH NO SIGNIFICANT WEATHER AND/OR OBSTRUCTIONS TO VISIBILITY NCZ015>017-031-032-045>047-102-103-281000- NORTH COAST CITY SKY/WX TMP DP RH WIND PRES REMARKS EDENTON MOCLDY 72 69 91 CALM 29.99R ELIZABETH CITY CLOUDY 72 71 97 S12 29.98R KITTY HAWK CLOUDY 72 71 97 CALM 29.98R MANTEO CLOUDY 72 70 95 SW14 29.99S $$ NCZ045>047-081-094-103-104-281000- CENTRAL COAST CITY SKY/WX TMP DP RH WIND PRES REMARKS FRISCO PTCLDY 73 70 90 SW12 30.01S FOG $$ NCZ095-097-098-100-101-281000- SOUTHERN COAST CITY SKY/WX TMP DP RH WIND PRES REMARKS BEAUFORT CLOUDY 73 73 100 S9 30.01R CEDAR ISLAND NOT AVBL JACKSONVILLE CLOUDY 75 73 93 SW9G18 30.00R PINEY ISLAND CLOUDY N/A N/A N/A S12 30.00R WILMINGTON CLOUDY 76 72 87 S12G20 30.01R $$ NCZ011>013-027>030-043-044-078>080-089-090>093-098-281000- COASTAL PLAIN CITY SKY/WX TMP DP RH WIND PRES REMARKS AHOSKIE LGT RAIN 70 68 94 S5 29.98R CLINTON CLOUDY 73 72 95 S3 29.98S ELIZABETHTOWN CLOUDY 74 72 91 S6 29.98R GOLDSBORO CLOUDY 73 73 100 S7 29.96R GREENVILLE CLOUDY 72 72 100 SW8 30.00R HAVELOCK NOT AVBL KENANSVILLE CLOUDY 72 70 94 S3 29.98S KINSTON CLOUDY 73 71 93 CALM 29.99S NEW BERN CLOUDY 75 72 90 SW10 30.01R RICHLANDS CLOUDY 74 71 91 S9 30.00R ROCKY MOUNT LGT RAIN 71 70 96 S6 29.97R WASHINGTON RAIN 73 70 91 SW7 30.00R WHITEVILLE CLOUDY 75 71 89 S6 29.98S $$ AMZ130-135-150-152-154-156-158-170-250-252-270-ANZ085-086-088-633-658-670-281000- MARINE OBSERVATIONS STATION/POSITION TIME TEMP WIND PRES WAVE SWELL AIR SEA DIR/SP/G HT/PER HT/PER (UTC) (F) (DEG/KT/KT) (MB) (FT/S) (FT/S) CHESAPEAKE LIGHT NOT AVBL 64 E VA BEACH 0850 60 56 200/ 10/ 10 1016.1 5/ 9 5/ 9 DUCK 0900 73 57 210/ 13/ 16 1014.8 2 E DUCK 0900 59 N/A 3/ 8 2/11 OREGON INLET 0900 72 72 190/ 13/ 15 1015.5 13E OREGON INLT 0848 62 N/A 5/ 8 3/ 8 HATTERAS CG 0900 73 70 190/ 4/ 8 1016.0 DIAMOND BUOY 0850 77 77 200/ 17/ 21 1016.2 6/ 8 3/ 8 CAPE LOOKOUT 0900 73 200/ 9/ 12 1016.1 BEAUFORT LAB 0900 73 69 200/ 8/ 11 1015.5 30 SE NEW RVR IN 0808 73 210/ 12/ 16 1016.0 30 SE NEW RVR IN 0913 72 N/A 5/ 6 2/12 27 SE WRIGHTSVLE 0808 73 72 200/ 10/ 14 1015.1 5 SE WRIGHTSVLE 0808 72 71 210/ 8/ 12 1015.8 225 S CAPE HAT 0850 74 75 170/ 16/ 17 1018.4 4/ 6 2/ 8 41 SE CHARLESTON 0900 75 74 190/ 12/ 14 1016.3 $$

USA.gov is the U.S. government's official web portal to all federal, state and local government web resources and services.